Regional Weather Roundup
Issued by NWS Cleveland, OH

Home | Current Version | Previous Version | Text Only | Print | Product List | Glossary Off
Versions: 1 2 3 4 5 6 7 8 9 10 11 12 13 14 15 16 17 18 19 20 21 22 23 24 25 26 27 28 29 30 31 32 33 34 35 36 37 38 39 40 41 42 43 44 45 46 47 48 49 50

000
ASUS41 KCLE 202110
RWRCLE
OHIO REGIONAL WEATHER ROUNDUP
NATIONAL WEATHER SERVICE WILMINGTON, OH
400 PM EST MON FEB 20 2017

NOTE: "FAIR" INDICATES FEW OR NO CLOUDS BELOW 12,000 FEET WITH NO
SIGNIFICANT WEATHER AND/OR OBSTRUCTIONS TO VISIBILITY.

OHZ001>008-015>018-024>027-034-035-043-044-202200-
   NORTHWEST OHIO

CITY           SKY/WX    TMP DP  RH WIND       PRES   REMARKS
DEFIANCE       NOT AVBL
FINDLAY        FAIR      65  34  31 SE12      30.15F
TOLEDO EXPRESS FAIR      53  35  50 E12       30.19F
TOLEDO EXEC    FAIR      47  34  60 NE12      30.22S
LIMA           FAIR      65  41  41 SE9       30.14F
$$

OHZ009>014-019>023-028>033-038-089-202200-
   NORTHEAST OHIO

CITY           SKY/WX    TMP DP  RH WIND       PRES   REMARKS
CLE-HOPKINS    CLOUDY    49  32  52 N9        30.25R
CLE-LAKEFRONT  FAIR      38  34  85 NE13      30.23S
CUY CO. ARPT   PTSUNNY   54  36  50 NE8       30.22F
LORAIN-ELYRIA  FAIR      49  32  52 E10       30.22R
ASHTABULA      FAIR      50  32  50 N10       30.24F
AKRON-CANTON   PTSUNNY   60  34  37 SE5       30.21S
WOOSTER        FAIR      60  38  43 S6        30.21R
MANSFIELD      FAIR      60  36  40 E7        30.20R
YOUNGSTOWN     PTSUNNY   58  28  32 E3        30.23F
$$

OHZ042-051>053-060>062-070>072-077>081-202200-
  SOUTHWEST OHIO

CITY           SKY/WX    TMP DP  RH WIND       PRES   REMARKS
CINC-COVINGTON PTSUNNY   64  48  56 E8        30.11F
CINC-LUNKEN    FAIR      66  49  54 CALM      30.13F
HAMILTON       FAIR      66  47  50 E6        30.14F
DAYTON         PTSUNNY   64  42  44 SE10      30.15F
WRIGHT-PAT AFB FAIR      66  40  39 SE9       30.14F
DAYTON GENERAL FAIR      66  41  40 SE9       30.13F
WILMINGTON     FAIR      63  41  44 SE7       30.15S
$$

OHZ036-037-039>041-045>050-054>059-063>069-073>076-082>088-202200-
  CENTRAL AND SOUTHEAST OHIO

CITY           SKY/WX    TMP DP  RH WIND       PRES   REMARKS
COLUMBUS       PTSUNNY   64  38  38 E8        30.18R
OSU AIRPORT    FAIR      62  42  47 SE6       30.18S
BOLTON FIELD   SUNNY     61  46  59 CALM      30.19S
RICKENBACK AFB FAIR      61  46  56 NE7       30.17S
NEWARK         FAIR      58  44  60 N5        30.19S
MARION         FAIR      64  34  32 S6        30.18S
LANCASTER      FAIR      65  43  44 CALM      30.18S
ZANESVILLE     FAIR      60  45  57 NE6       30.19F
NEW PHILLY     FAIR      61  42  49 VRB5      30.21S
$$




USA.gov is the U.S. government's official web portal to all federal, state and local government web resources and services.